Content
SEND FEEDBACK

Daily
Averages
Monthly
Summary
French Polynesia

PAPEETE, FRENCH POLYNESIA


Home > Oceania > French Polynesia
Elevation: 7 feet     Latitude: 17 33S     Longitude: 149 36W

WEATHER
 
SELECT A DAY
Number of Records: 208,734;   Date Range: 6/30/96 - 8/31/14
 
SHARE

PRINT THIS DATA

[ ← Previous Day ]
WEATHER ALMANAC - MAY 6, 2014
[ Next Day → ]
[ °C ]   °F
Weather ElementAverageHighLow
Temperature83.2 °F87.8 °F (2:30 pm)80.6 °F (2:00 am)
Dewpoint76.4 °F78 °F (11:00 pm)73.4 °F (2:00 am)
Humidity79.3 %89 % (3:30 am)64 % (2:00 pm)
Barometer29.87 in29.92 in (9:30 am)29.80 in (2:30 pm)
Wind Speed13.3 mph19.6 mph (4:30 am)
Weather ElementAverage
Visibility7.3 mi
Wind DirectionENE (72.2 °)

Weather ElementTotal
Precipitation---
Cooling Degree Days19.2 (Base 65)
Growing Degree Days34.2 (Base 50)
Averaged from 51 records on May 6, 2014
WEATHER CONDITIONS BREAKOUT
WIND DIRECTION BREAKOUT
WEATHER BY HOUR - MAY 6, 2014
[ °C ]   °F
Local TimeTemperatureDewpointHumidityBarometerVisibilityWind DirectionWind SpeedGust SpeedPrecipitationEventsConditions
2:00 AM80.6 °F73.4 °F79 %29.83 in6.2 miENE (70°)10.4 mphMostly Cloudy
2:30 AM80.6 °F75.2 °F84 %29.83 in6.2 miENE (70°)10.4 mphMostly Cloudy
3:00 AM80.6 °F75.2 °F84 %29.83 in6.2 miENE (70°)11.5 mphMostly Cloudy
3:30 AM80.6 °F77.0 °F89 %29.83 in6.2 miNE (50°)11.5 mphRainLight Rain
4:00 AM80.6 °F77.0 °F89 %29.83 in6.2 miNorth (10°)18.4 mphMostly Cloudy
4:30 AM82.4 °F75.2 °F79 %29.83 in6.2 miNorth (10°)19.6 mphOvercast
5:00 AM82.4 °F75.2 °F79 %29.86 in6.2 miNorth (10°)16.1 mphOvercast
5:00 AM82.0 °F75.0 °F75 %29.87 in34.0 miNorth (10°)16.1 mphClear
5:30 AM82.4 °F75.2 °F79 %29.86 in6.2 miNNE (20°)13.8 mphMostly Cloudy
6:00 AM82.4 °F75.2 °F79 %29.86 in6.2 miNNE (20°)16.1 mphMostly Cloudy
6:30 AM82.4 °F75.2 °F79 %29.86 in6.2 miNNE (30°)13.8 mphMostly Cloudy
7:00 AM82.4 °F75.2 °F79 %29.86 in6.2 miNNE (30°)13.8 mphMostly Cloudy
7:30 AM82.4 °F75.2 °F79 %29.89 in6.2 miNE (40°)15.0 mphMostly Cloudy
8:00 AM83.0 °F77.0 °F77 %29.89 in9.0 miNE (40°)16.1 mphMostly Cloudy
8:00 AM82.4 °F77.0 °F84 %29.89 in6.2 miNE (40°)16.1 mphMostly Cloudy
8:30 AM82.4 °F77.0 °F84 %29.89 in6.2 miNNE (20°)17.3 mphMostly Cloudy
9:00 AM82.4 °F77.0 °F84 %29.89 in6.2 miNNE (30°)15.0 mphMostly Cloudy
9:30 AM84.2 °F77.0 °F79 %29.92 in6.2 miNNE (20°)17.3 mphMostly Cloudy
10:00 AM84.2 °F77.0 °F79 %29.92 in6.2 miNNE (20°)19.6 mphMostly Cloudy
10:30 AM84.2 °F77.0 °F79 %29.92 in6.2 miNorth (350°)18.4 mphMostly Cloudy
11:00 AM84.0 °F76.0 °F71 %29.91 in9.0 miNorth17.3 mphOvercast
11:00 AM84.2 °F77.0 °F79 %29.89 in6.2 miNorth (360°)17.3 mphMostly Cloudy
11:30 AM84.2 °F77.0 °F79 %29.89 in6.2 miNNE (20°)13.8 mphMostly Cloudy
12:00 PM86.0 °F77.0 °F74 %29.86 in6.2 miNorth (10°)13.8 mphMostly Cloudy
12:30 PM86.0 °F77.0 °F74 %29.86 in6.2 miNorth (10°)13.8 mphMostly Cloudy
1:00 PM86.0 °F77.0 °F74 %29.86 in6.2 miNorth (350°)15.0 mphScattered Clouds
1:30 PM86.0 °F75.2 °F70 %29.83 in6.2 miNorth (10°)15.0 mphScattered Clouds
2:00 PM86.0 °F76.0 °F64 %29.83 in16.0 miNNE (30°)12.7 mphScattered Clouds
2:00 PM86.0 °F75.2 °F70 %29.83 in6.2 miNNE (30°)12.7 mphScattered Clouds
2:30 PM87.8 °F77.0 °F70 %29.80 in6.2 miNorth (360°)16.1 mphScattered Clouds
3:00 PM86.0 °F77.0 °F74 %29.80 in6.2 miNNE (20°)11.5 mphMostly Cloudy
3:30 PM86.0 °F77.0 °F74 %29.83 in6.2 miNNE (20°)13.8 mphMostly Cloudy
4:00 PM86.0 °F77.0 °F74 %29.83 in6.2 miNorth (10°)13.8 mphMostly Cloudy
4:30 PM84.2 °F77.0 °F79 %29.83 in6.2 miNNE (20°)9.2 mphMostly Cloudy
5:00 PM84.0 °F77.0 °F74 %29.86 in16.0 miNorth (10°)11.5 mphScattered Clouds
5:00 PM84.2 °F77.0 °F79 %29.86 in6.2 miNorth (10°)11.5 mphMostly Cloudy
5:30 PM82.4 °F77.0 °F84 %29.86 in6.2 miNorth (10°)10.4 mphMostly Cloudy
6:00 PM82.4 °F77.0 °F84 %29.86 in6.2 miNorth (350°)10.4 mphMostly Cloudy
6:30 PM82.4 °F77.0 °F84 %29.86 in6.2 miNE (40°)8.1 mphMostly Cloudy
7:00 PM82.4 °F77.0 °F84 %29.89 in6.2 miNE (50°)6.9 mphMostly Cloudy
7:30 PM82.4 °F75.2 °F79 %29.89 in6.2 miNE (50°)6.9 mphMostly Cloudy
8:00 PM83.0 °F76.0 °F74 %29.89 in9.0 miNE (50°)8.1 mphMostly Cloudy
8:00 PM82.4 °F77.0 °F84 %29.89 in6.2 miNE (50°)8.1 mphMostly Cloudy
8:30 PM82.4 °F75.2 °F79 %29.89 in6.2 miNE (50°)10.4 mphMostly Cloudy
9:00 PM82.4 °F77.0 °F84 %29.89 in6.2 miNNE (20°)12.7 mphMostly Cloudy
9:30 PM82.4 °F77.0 °F84 %29.89 in6.2 miNNE (20°)10.4 mphMostly Cloudy
10:00 PM82.4 °F77.0 °F84 %29.89 in6.2 miNNE (20°)9.2 mphRainLight Rain Showers
10:30 PM82.4 °F77.0 °F84 %29.89 in6.2 miNorth (10°)13.8 mphMostly Cloudy
11:00 PM81.0 °F78.0 °F86 %29.89 in9.0 miNorth (350°)12.7 mphRainLight Rain Showers
11:00 PM80.6 °F77.0 °F89 %29.89 in6.2 miNorth (360°)13.8 mphRainLight Rain Showers
11:30 PM82.4 °F77.0 °F84 %29.89 in6.2 miNNE (20°)12.7 mphRainLight Rain Showers
Hourly data recorded from NTAA, located miles away from Papeete, French Polynesia







STORIES FROM OUR PARTNERS